Date String (YYYY-MM-DD hh:mm:ss) UTC,Instrument flags,absolute air pressure of the measurement (hPa),sample flow rate (lpm),inlet stack bypass flow (lpm),air temperature of the measurement (°C),ambient temperature measured by the external sensor (°C),aerosol sample conditioner tube jacket temperature (°C),OPC LED temperature (°C),internal box temperature (°C),relative humidity of the measurement (%),span deviation,mass concentration of particles derived from Lorenz-Mie calculation of OPC scattering (μg/m³),mass concentration of particles derived from Lorenz-Mie calculation of OPC scattering (μg/m³),mass concentration of particles derived from Lorenz-Mie calculation of OPC scattering (μg/m³)
DateTimeUTC,F1_M11,P_M11,Q1_M11,Q2_M11,T1_M11,T2_M11,T3_M11,T4_M11,T5_M11,U1_M11,ZSPAN_M11,X2_M11,X0_M11,X1_M11
2023-08-20 05:00:00,SystemResetWarning,0835.6,5.00,000.00,029.7,027.0,000.0,037.8,030.4,33.8,0000.0,0003.96,0009.15,0003.31
2023-08-20 05:01:00,SystemResetWarning,0835.7,4.99,000.00,029.7,026.7,000.0,037.8,030.3,33.7,0000.0,0003.96,0009.26,0003.30
2023-08-20 05:02:00,SystemResetWarning,0835.7,4.99,000.00,029.7,025.0,000.0,037.6,030.0,33.7,0000.0,0003.93,0008.97,0003.27
2023-08-20 05:03:00,SystemResetWarning,0835.7,5.00,000.00,029.6,023.9,000.0,037.5,029.7,33.9,0000.0,0003.92,0008.81,0003.25
2023-08-20 05:04:00,SystemResetWarning,0835.7,5.01,000.00,029.4,023.8,000.0,037.5,029.6,34.2,0000.0,0003.87,0008.41,0003.22
2023-08-20 05:05:00,SystemResetWarning,0835.7,5.02,000.00,029.3,024.1,000.0,037.5,029.4,34.6,0000.0,0003.85,0008.41,0003.21
2023-08-20 05:06:00,SystemResetWarning,0835.8,4.99,000.00,029.2,024.6,000.0,037.5,029.6,34.9,0000.0,0003.86,0008.49,0003.20
2023-08-20 05:07:00,SystemResetWarning,0835.7,4.98,000.00,029.2,025.0,000.0,037.5,029.7,35.2,0000.0,0003.87,0007.86,0003.20
2023-08-20 05:08:00,SystemResetWarning,0835.7,5.02,000.00,029.3,025.4,000.0,037.5,029.9,35.2,0000.0,0003.88,0007.98,0003.19
2023-08-20 05:09:00,SystemResetWarning,0835.8,4.99,000.00,029.6,025.8,000.0,037.5,030.1,34.7,0000.0,0003.89,0008.00,0003.19
2023-08-20 05:10:00,SystemResetWarning,0835.9,4.99,000.00,029.8,026.1,000.0,037.5,030.2,34.4,0000.0,0003.84,0008.11,0003.18
2023-08-20 05:11:00,SystemResetWarning,0835.9,5.02,000.00,029.9,026.4,000.0,037.6,030.3,34.4,0000.0,0003.82,0008.28,0003.18
2023-08-20 05:12:00,SystemResetWarning,0835.9,5.00,000.00,030.0,026.6,000.0,037.6,030.3,34.5,0000.0,0003.81,0008.22,0003.18
2023-08-20 05:13:00,SystemResetWarning,0835.9,4.99,000.00,030.0,026.8,000.0,037.7,030.4,34.7,0000.0,0003.82,0008.21,0003.18
2023-08-20 05:14:00,SystemResetWarning,0836.0,4.99,000.00,030.0,027.0,000.0,037.8,030.4,34.9,0000.0,0003.85,0008.28,0003.18
2023-08-20 05:15:00,SystemResetWarning,0836.1,5.00,000.00,030.1,027.1,000.0,037.8,030.4,34.9,0000.0,0003.87,0008.49,0003.18
2023-08-20 05:16:00,SystemResetWarning,0836.1,5.00,000.00,030.1,027.2,000.0,037.9,030.5,34.9,0000.0,0003.90,0008.95,0003.18
2023-08-20 05:17:00,SystemResetWarning,0836.0,4.99,000.00,030.1,026.0,000.0,037.8,030.4,35.0,0000.0,0003.91,0009.78,0003.19
2023-08-20 05:18:00,SystemResetWarning,0836.0,5.03,000.00,030.2,024.3,000.0,037.7,030.1,34.9,0000.0,0003.89,0009.96,0003.20
2023-08-20 05:19:00,SystemResetWarning,0836.0,4.98,000.00,030.2,023.8,000.0,037.7,030.0,34.8,0000.0,0003.88,0009.65,0003.20
2023-08-20 05:20:00,SystemResetWarning,0835.9,5.00,000.00,030.1,024.0,000.0,037.7,029.7,35.2,0000.0,0003.85,0009.48,0003.19
2023-08-20 05:21:00,SystemResetWarning,0835.9,5.02,000.00,030.2,024.4,000.0,037.8,029.9,35.2,0000.0,0003.89,0009.59,0003.19
2023-08-20 05:22:00,SystemResetWarning,0836.0,4.99,000.00,030.4,024.9,000.0,037.8,030.1,34.8,0000.0,0003.93,0009.71,0003.19
2023-08-20 05:23:00,SystemResetWarning,0836.1,4.99,000.00,030.6,025.3,000.0,037.9,030.2,34.5,0000.0,0003.95,0009.90,0003.20
2023-08-20 05:24:00,SystemResetWarning,0836.1,5.01,000.00,030.7,025.7,000.0,038.0,030.3,34.4,0000.0,0003.97,0009.93,0003.20
2023-08-20 05:25:00,SystemResetWarning,0836.1,5.00,000.00,030.7,026.0,000.0,038.0,030.4,34.4,0000.0,0003.96,0009.93,0003.20
2023-08-20 05:26:00,SystemResetWarning,0836.2,5.00,000.00,030.7,026.3,000.0,038.1,030.4,34.4,0000.0,0003.98,0010.24,0003.22
2023-08-20 05:27:00,SystemResetWarning,0836.2,5.00,000.00,030.8,026.6,000.0,038.2,030.5,34.6,0000.0,0003.95,0009.91,0003.23
2023-08-20 05:28:00,SystemResetWarning,0836.3,5.00,000.00,030.8,026.8,000.0,038.3,030.5,34.6,0000.0,0003.95,0009.27,0003.24
2023-08-20 05:29:00,SystemResetWarning,0836.4,5.01,000.00,030.8,027.0,000.0,038.4,030.6,34.6,0000.0,0003.95,0009.01,0003.24
2023-08-20 05:30:00,SystemResetWarning,0836.4,5.01,000.00,030.8,027.1,000.0,038.4,030.6,34.7,0000.0,0003.98,0009.02,0003.25
2023-08-20 05:31:00,SystemResetWarning,0836.5,5.00,000.00,030.8,027.3,000.0,038.5,030.7,34.8,0000.0,0003.98,0009.01,0003.27
2023-08-20 05:32:00,SystemResetWarning,0836.5,4.97,000.00,030.8,027.4,000.0,038.5,030.7,35.3,0000.0,0003.99,0008.90,0003.29
2023-08-20 05:33:00,SystemResetWarning,0836.5,5.03,000.00,030.9,027.0,000.0,038.5,030.8,35.5,0000.0,0004.00,0008.64,0003.32
2023-08-20 05:34:00,SystemResetWarning,0836.5,5.00,000.00,031.2,025.2,000.0,038.4,030.7,35.3,0000.0,0004.01,0008.78,0003.34
2023-08-20 05:35:00,SystemResetWarning,0836.6,5.00,000.00,031.4,024.1,000.0,038.4,030.6,35.0,0000.0,0004.00,0008.64,0003.38
2023-08-20 05:36:00,SystemResetWarning,0836.7,5.00,000.00,031.6,023.9,000.0,038.4,030.4,34.7,0000.0,0004.00,0008.99,0003.40
2023-08-20 05:37:00,SystemResetWarning,0836.6,4.97,000.00,031.5,024.2,000.0,038.5,030.2,35.1,0000.0,0003.99,0008.59,0003.41
2023-08-20 05:38:00,SystemResetWarning,0836.6,5.05,000.00,031.6,024.7,000.0,038.6,030.3,34.9,0000.0,0004.04,0008.62,0003.41
2023-08-20 05:39:00,SystemResetWarning,0836.6,4.95,000.00,031.7,025.2,000.0,038.7,030.5,34.6,0000.0,0004.09,0008.89,0003.41
2023-08-20 05:40:00,SystemResetWarning,0836.6,5.04,000.00,031.8,025.6,000.0,038.7,030.6,34.5,0000.0,0004.09,0009.05,0003.41
2023-08-20 05:41:00,SystemResetWarning,0836.7,4.98,000.00,031.8,026.0,000.0,038.9,030.7,34.4,0000.0,0004.09,0009.21,0003.41
2023-08-20 05:42:00,SystemResetWarning,0836.8,4.99,000.00,031.8,026.3,000.0,039.0,030.7,34.6,0000.0,0004.10,0009.33,0003.40
2023-08-20 05:43:00,SystemResetWarning,0836.8,5.01,000.00,031.8,026.6,000.0,039.1,030.8,34.6,0000.0,0004.10,0009.71,0003.38
2023-08-20 05:44:00,SystemResetWarning,0836.8,5.02,000.00,031.8,026.8,000.0,039.1,030.8,34.6,0000.0,0004.10,0010.09,0003.37
2023-08-20 05:45:00,SystemResetWarning,0836.7,4.99,000.00,031.8,027.0,000.0,039.2,030.9,34.8,0000.0,0004.13,0010.12,0003.35
2023-08-20 05:46:00,SystemResetWarning,0836.8,4.99,000.00,031.7,027.1,000.0,039.3,030.9,34.9,0000.0,0004.18,0011.05,0003.33
2023-08-20 05:47:00,SystemResetWarning,0836.8,4.99,000.00,031.7,027.3,000.0,039.3,031.0,35.0,0000.0,0004.23,0011.08,0003.31
2023-08-20 05:48:00,SystemResetWarning,0836.8,5.04,000.00,031.7,027.4,000.0,039.4,031.0,35.1,0000.0,0004.31,0011.19,0003.32
2023-08-20 05:49:00,SystemResetWarning,0836.8,4.96,000.00,031.9,027.0,000.0,039.3,031.1,34.7,0000.0,0004.32,0011.25,0003.33
2023-08-20 05:50:00,SystemResetWarning,0836.8,5.03,000.00,032.0,025.2,000.0,039.2,030.9,34.5,0000.0,0004.32,0010.83,0003.33
2023-08-20 05:51:00,SystemResetWarning,0836.8,5.01,000.00,031.9,024.1,000.0,039.1,030.6,34.5,0000.0,0004.37,0011.23,0003.35
2023-08-20 05:52:00,SystemResetWarning,0836.7,4.99,000.00,031.8,024.0,000.0,039.1,030.3,34.8,0000.0,0004.40,0011.36,0003.36
2023-08-20 05:53:00,SystemResetWarning,0836.8,5.01,000.00,031.6,024.3,000.0,039.1,030.2,35.5,0000.0,0004.47,0011.50,0003.37
2023-08-20 05:54:00,SystemResetWarning,0836.8,5.01,000.00,031.6,024.7,000.0,039.2,030.4,35.4,0000.0,0004.52,0011.54,0003.39
2023-08-20 05:55:00,SystemResetWarning,0836.8,5.01,000.00,031.8,025.2,000.0,039.2,030.6,35.0,0000.0,0004.53,0011.14,0003.39
2023-08-20 05:56:00,SystemResetWarning,0836.9,4.97,000.00,032.0,025.6,000.0,039.2,030.8,34.6,0000.0,0004.52,0011.20,0003.41
2023-08-20 05:57:00,SystemResetWarning,0837.0,5.00,000.00,032.1,026.0,000.0,039.3,030.9,34.4,0000.0,0004.47,0010.28,0003.43
2023-08-20 05:58:00,SystemResetWarning,0836.9,5.01,000.00,032.2,026.3,000.0,039.3,030.9,34.3,0000.0,0004.44,0010.49,0003.43
2023-08-20 05:59:00,SystemResetWarning,0837.0,5.00,000.00,032.2,026.6,000.0,039.4,031.0,34.4,0000.0,0004.37,0010.96,0003.44
